Weather observations for the past three days for
Ketchikan, Ketchikan International Airport
Imperial (Metric)
Date Time (akdt) Wind (mph) Vis. (mi.) Weather Sky Cond. Temperature (ºF) Relative Humidity Wind Chill (°F) Heat Index (°F) Pressure Precipitation (in)
Air Dwpt 6 hour altimeter (in) sea level (mb) 1 hr 3 hr 6 hr
Max. Min.
17 23:53 SE 5 2.00 Light Rain Fog/Mist FEW005 OVC011 60.1 59 96% 29.98 1015.1 0.03
17 22:53 SE 5 3.00 Light Rain Fog/Mist OVC004 60.1 59 96% 29.97 1014.9 0.01
17 21:53 SE 8 10.00 Light Rain OVC005 60.1 59 61 60.1 96% 29.97 1014.8 0.01 0.88
17 20:53 SE 7 3.00 Light Rain Fog/Mist SCT007 OVC011 60.1 59 96% 29.97 1014.7 0.09
17 19:53 SE 12 3.00 Light Rain Fog/Mist SCT008 OVC011 61 59 93% 29.96 1014.4 0.14
17 18:53 SE 9 3.00 Rain Fog/Mist SCT007 OVC012 60.1 59 96% 29.96 1014.5 0.15 0.64
17 17:53 SE 14 G 22 3.00 Heavy Rain Fog/Mist SCT015 OVC022 61 59 93% 29.96 1014.5 0.31
17 16:53 SE 14 G 24 3.00 Rain Fog/Mist SCT008 OVC018 60.1 59 96% 29.95 1014.3 0.18
17 15:53 SE 13 3.00 Rain Fog/Mist SCT007 OVC016 61 59 63 60.1 93% 29.96 1014.5 0.22 0.95
17 14:53 SE 8 3.00 Rain Fog/Mist SCT009 BKN014 OVC025 61 59 93% 29.97 1014.8 0.18
17 13:53 SE 15 G 23 3.00 Light Rain Fog/Mist SCT022 OVC034 61 59 93% 29.96 1014.7 0.16
17 12:53 SE 13 G 23 3.00 Rain Fog/Mist SCT022 OVC030 61 59 93% 29.96 1014.5 0.17 0.39
17 11:53 SE 16 3.00 Rain Fog/Mist SCT018 OVC030 61 59 93% 29.94 1013.9 0.17
17 10:53 SE 12 5.00 Light Rain Fog/Mist SCT020 BKN030 OVC035 63 61 93% 29.93 1013.6 0.05
17 09:53 SE 10 8.00 Light Rain SCT020 BKN030 OVC035 63 60.1 63 60.1 90% 29.91 1012.9 0.02 0.02
17 08:53 SE 8 10.00 Light Rain SCT012 BKN026 OVC033 63 60.1 90% 29.91 1012.9
17 07:53 SE 10 10.00 Overcast SCT006 BKN014 OVC022 62.1 59 90% 29.92 1013.1
17 06:53 SE 7 10.00 Overcast SCT008 OVC012 61 59 93% 29.91 1012.8
17 05:53 SE 12 10.00 Overcast OVC011 61 57.9 90% 29.91 1013.0
17 04:53 S 6 10.00 Overcast OVC012 60.1 57.9 93% 29.91 1013.0
17 03:53 S 7 10.00 Overcast OVC015 61 59 62.1 61 93% 29.91 1012.9
17 02:53 SE 7 10.00 Overcast OVC016 61 59 93% 29.91 1012.9
17 01:53 SE 8 10.00 Overcast OVC018 61 60.1 97% 29.92 1013.4
17 00:53 SE 7 10.00 Overcast OVC021 61 60.1 97% 29.93 1013.7
16 23:53 SE 6 10.00 Overcast OVC090 61 60.1 97% 29.94 1013.8
16 22:53 E 5 10.00 Overcast SCT010 OVC036 62.1 60.1 93% 29.95 1014.1
16 21:53 SE 5 10.00 Overcast OVC010 62.1 60.1 63 61 93% 29.95 1014.4 0.05
16 20:53 SE 5 10.00 Overcast SCT005 OVC110 62.1 61 96% 29.97 1015.0
16 19:53 SE 5 10.00 Mostly Cloudy SCT005 BKN032 63 61 93% 29.98 1015.4
16 18:53 SE 7 10.00 Overcast SCT009 BKN026 OVC045 63 61 93% 30 1015.9 0.05
16 17:53 SE 7 5.00 Fog/Mist SCT008 OVC018 62.1 60.1 93% 30.01 1016.2 0.01
16 16:53 SE 6 5.00 Light Rain Fog/Mist SCT008 OVC018 62.1 60.1 93% 30.03 1017.0 0.04
16 15:53 SE 10 3.00 Light Rain Fog/Mist OVC017 61 59 62.1 60.1 93% 30.04 1017.3 0.03 0.19
16 14:53 SE 9 3.00 Light Rain Fog/Mist SCT016 OVC022 62.1 60.1 93% 30.05 1017.5 0.03
16 13:53 SE 8 3.00 Light Rain Fog/Mist SCT006 OVC019 61 60.1 97% 30.05 1017.6 0.01
16 12:53 SE 10 3.00 Light Rain Fog/Mist SCT006 OVC017 61 59 93% 30.06 1017.8 0.02 0.12
16 11:53 SE 12 3.00 Light Rain Fog/Mist SCT005 OVC017 61 59 93% 30.05 1017.8 0.04
16 10:53 SE 7 3.00 Light Rain Fog/Mist SCT005 OVC015 60.1 59 96% 30.06 1018.0 0.06
16 09:53 SE 8 3.00 Light Rain Fog/Mist SCT005 OVC015 60.1 57.9 60.1 57.9 93% 30.06 1017.9 0.04 0.18
16 08:53 SE 6 3.00 Light Rain Fog/Mist SCT005 OVC015 59 57.9 96% 30.05 1017.8 0.07
16 07:53 SE 7 3.00 Light Rain Fog/Mist SCT004 OVC015 57.9 57 97% 30.05 1017.8 0.03
16 06:53 E 7 3.00 Light Rain Fog/Mist SCT004 OVC015 57.9 57 97% 30.06 1017.9 0.03 0.04
16 05:53 SE 8 6.00 Fog/Mist OVC005 57.9 57 97% 30.05 1017.8
16 04:53 SE 9 9.00 Overcast OVC004 57.9 57 97% 30.06 1017.9 0.01
16 02:53 SE 9 4.00 Fog/Mist BKN005 OVC022 57.9 57 97% 30.05 1017.8 0.01
16 00:53 SE 9 3.00 Fog/Mist OVC004 57.9 57 97% 30.05 1017.8 0.04
15 23:53 SE 13 5.00 Fog/Mist OVC004 57.9 57 97% 30.06 1017.8 0.02
15 22:53 SE 13 5.00 Light Rain Fog/Mist OVC005 57.9 57 97% 30.06 1018.1 0.02
15 21:53 SE 13 4.00 Light Rain Fog/Mist OVC005 59 57 60.1 57.9 93% 30.06 1018.0 0.02 0.17
15 20:53 SE 10 3.00 Light Rain Fog/Mist SCT005 OVC012 59 57.9 96% 30.06 1018.0 0.01
15 19:53 SE 12 3.00 Fog/Mist SCT005 BKN010 OVC015 59 57 93% 30.06 1018.0 0.01
15 18:53 SE 14 3.00 Fog/Mist SCT005 BKN010 OVC017 59 57 93% 30.06 1018.1 0.02 0.13
15 17:53 SE 15 3.00 Light Rain Fog/Mist SCT005 OVC020 59 57.9 96% 30.06 1018.0 0.03
15 16:53 SE 17 G 24 3.00 Light Rain Fog/Mist SCT007 BKN014 OVC022 59 57.9 96% 30.06 1018.0 0.08
15 15:53 SE 15 3.00 Light Rain Fog/Mist SCT006 BKN012 OVC028 59 57.9 60.1 59 96% 30.07 1018.3 0.06 0.24
15 14:53 SE 15 G 23 3.00 Light Rain Fog/Mist SCT017 BKN022 OVC040 59 57 93% 30.07 1018.2 0.05
15 13:53 SE 13 3.00 Light Rain Fog/Mist SCT007 BKN025 OVC032 60.1 57.9 93% 30.07 1018.2 0.05
15 12:53 SE 13 G 21 5.00 Light Rain Fog/Mist SCT018 BKN025 OVC034 60.1 57.9 93% 30.06 1017.9 0.01 0.08
15 11:53 SE 10 G 22 6.00 Light Rain Fog/Mist SCT018 OVC026 59 57 93% 30.06 1017.8 0.03
15 10:53 SE 14 6.00 Light Rain Fog/Mist SCT018 BKN024 OVC030 59 57 93% 30.06 1017.9 0.04
15 09:53 SE 10 7.00 Light Rain SCT018 BKN022 OVC030 60.1 57.9 63 60.1 93% 30.05 1017.7 0.03 0.03
15 08:53 SE 10 8.00 Overcast SCT017 BKN022 OVC029 61 59 93% 30.05 1017.6
15 07:53 SE 12 10.00 Overcast FEW014 SCT022 OVC033 62.1 57 84% 30.05 1017.7
15 06:53 SE 10 10.00 Overcast FEW010 SCT021 OVC047 62.1 57.9 86% 30.05 1017.5
15 05:53 SE 6 10.00 Overcast BKN008 OVC043 62.1 59 90% 30.05 1017.4
15 04:53 S 3 10.00 Overcast OVC008 62.1 57 84% 30.05 1017.5
15 03:53 SE 3 10.00 Overcast BKN010 OVC016 61 57.9 63 61 90% 30.05 1017.6
15 02:53 SE 5 10.00 Overcast OVC047 61 57.9 90% 30.05 1017.6
15 01:53 S 5 10.00 Overcast FEW034 OVC046 62.1 57.9 86% 30.06 1017.7
15 00:53 NW 3 10.00 Overcast OVC045 62.1 57.9 86% 30.05 1017.6
Date Time (akdt) Wind (mph) Vis. (mi.) Weather Sky Cond. Air Dwpt Max. Min. Relative Humidity Wind Chill (°F) Heat Index (°F) altimeter (in) sea level (mb) 1 hr 3 hr 6 hr
6 hour
Temperature (ºF) Pressure Precipitation (in)